Aeroporto :
LOGIN :

Iscrizione | Disclaimer

   EN    FR    IT 

 










Sommario :    VFR   VFR Marginale   IFR   IFR Intensivo   IFR Molto Intensivo
Visibilità : 
Base nubi : 
>= 8 km
>= 3000ft
5 / 8 km
1000 / 3000 ft
1500m / 5 km
500 / 1000 ft
800 / 1500m
200 / 500 ft
< 800m
< 200 ft
Simboli :   Temporali  Nebbia  Neve Forte  Precipitazioni Forti  Vento > 20 kt
SIGMETs :   Varie  Temporali  Ghiacco  Turbolenza  Onda orograficha  Ceneri Vulcaniche






- Altitudine del aeroporto : 0 ft


ENSL - Sleipner A Platform

ULTIMO METAR :
  • 060850Z AUTO 11008KT 9999NDV BKN025/// BKN048/// 15/14 Q1014 W12/S3

METARs OBSOLETI :
  • 060820Z AUTO 11006KT 050V140 9999NDV BKN029/// 15/14 Q1014 W12/S3
  • 060750Z AUTO 14002KT 9999NDV OVC030/// 14/14 Q1014 W12/S4
  • 060720Z AUTO VRB02KT 9999NDV OVC034/// 14/14 Q1013 W12/S4
  • 060650Z AUTO 26004KT 8000NDV -SHRA BKN038/// 14/14 Q1013 W12/S3
  • 060620Z AUTO 24006KT 9999NDV OVC041/// 14/14 Q1013 W11/S3

Previsioni scadute.



MetMap, La meteo Aeronautica in un colpo d'occhio ! - Copyright ORBIFLY Dicembre 2007 - Disclaimer

ORBIFLY MET'MAP TEAM :

Programmazione e sviluppo : Alexandra Zaïnal
Concezione : Baudouin d'Aumeries
Aiuto per la programmazione : Marc-Olivier Méhu
Supporto tecnico e logistico : Manuel Goepfert
Aiuto per la traduzione : Arnaldo La Scala

Contatto : metmap@orbifly.com




FONTI E CREDITI :

   NOAA